Location: Chochol
(49.7771°N, 14.9780°E)
Time: 13:01:58
(UTC+00:00)

ALOS 2 - Pass Details

Date: 09 April 2020
Orbit: 630 x 632 km, 97.9° (Epoch: 28 May)

Event Time Altitude Azimuth Distance (km) Brightness Sun altitude
Exits shadow 22:36:53 30° 334° (NNW) 1,143 4.4 -32.0°
Drops below altitude 10° 22:39:10 10° 342° (NNW) 2,027 6.0 -32.0°
Sets 22:41:24 0° 345° (NNW) 2,940 7.1 -32.0°
